EN

Hourly Weather Bolshoe Naryshkino

Today, 24 October, Saturday

Time Temperature Precipitation Wind Pressure Humidity
00:00 +10°C° 0 mm 3 mps 739 mmHg 93%
01:00 +9°C° 0 mm 3 mps 739 mmHg 95%
02:00 +9°C° 0 mm 3 mps 739 mmHg 96%
03:00 +9°C° 0 mm 3 mps 739 mmHg 97%
04:00 +8°C° 0 mm 3 mps 739 mmHg 97%
05:00 +8°C° 0 mm 2 mps 739 mmHg 97%
06:00 +8°C° 0 mm 2 mps 740 mmHg 96%
07:00 +8°C° 0 mm 2 mps 740 mmHg 95%
08:00 +9°C° 0 mm 2 mps 740 mmHg 93%
09:00 +10°C° 0 mm 2 mps 740 mmHg 88%
10:00 +12°C° 0 mm 2 mps 740 mmHg 82%
11:00 +13°C° 0 mm 2 mps 740 mmHg 77%
12:00 +13°C° 0 mm 2 mps 740 mmHg 75%
13:00 +13°C° 0 mm 2 mps 740 mmHg 74%
14:00 +13°C° 0 mm 3 mps 740 mmHg 73%
15:00 +13°C° 0.1 mm 2 mps 740 mmHg 79%
16:00 +12°C° 0.1 mm 2 mps 740 mmHg 85%
17:00 +12°C° 0.1 mm 1 mps 739 mmHg 91%
18:00 +12°C° 1 mm 2 mps 739 mmHg 93%
19:00 +10°C° 1 mm 2 mps 739 mmHg 95%
20:00 +10°C° 1 mm 3 mps 739 mmHg 97%
21:00 +11°C° 1.8 mm 3 mps 739 mmHg 96%
22:00 +11°C° 1.8 mm 4 mps 739 mmHg 95%
23:00 +10°C° 1.8 mm 5 mps 738 mmHg 94%

Tomorrow, 25 October, Sunday

Time Temperature Precipitation Wind Pressure Humidity
00:00 +10°C° 0.1 mm 4 mps 739 mmHg 93%
01:00 +8°C° 0.1 mm 4 mps 739 mmHg 93%
02:00 +9°C° 0.1 mm 3 mps 740 mmHg 92%
03:00 +8°C° 0 mm 3 mps 740 mmHg 93%
04:00 +8°C° 0 mm 3 mps 740 mmHg 94%
05:00 +7°C° 0 mm 3 mps 741 mmHg 96%
06:00 +7°C° 0 mm 3 mps 741 mmHg 94%
07:00 +7°C° 0 mm 3 mps 742 mmHg 93%
08:00 +7°C° 0 mm 3 mps 742 mmHg 91%
09:00 +7°C° 0 mm 4 mps 743 mmHg 88%
10:00 +8°C° 0 mm 4 mps 743 mmHg 85%
11:00 +10°C° 0 mm 4 mps 743 mmHg 81%
12:00 +10°C° 0 mm 4 mps 744 mmHg 81%
13:00 +10°C° 0 mm 3 mps 744 mmHg 81%
14:00 +10°C° 0 mm 3 mps 744 mmHg 81%
15:00 +10°C° 0 mm 3 mps 745 mmHg 82%
16:00 +10°C° 0 mm 2 mps 745 mmHg 83%
17:00 +10°C° 0 mm 1 mps 745 mmHg 85%
18:00 +10°C° 0 mm 1 mps 745 mmHg 84%
19:00 +10°C° 0 mm 1 mps 746 mmHg 84%
20:00 +10°C° 0 mm 1 mps 747 mmHg 84%
21:00 +10°C° 0 mm 1 mps 747 mmHg 84%
22:00 +10°C° 0 mm 1 mps 747 mmHg 84%
23:00 +10°C° 0 mm 1 mps 747 mmHg 84%

Day after tomorrow, 26 October, Monday

Time Temperature Precipitation Wind Pressure Humidity
00:00 +10°C° 0 mm 1 mps 747 mmHg 83%
01:00 +10°C° 0 mm 1 mps 747 mmHg 83%
02:00 +10°C° 0 mm 1 mps 748 mmHg 82%
03:00 +10°C° 0 mm 1 mps 748 mmHg 82%
04:00 +10°C° 0 mm 1 mps 748 mmHg 81%
05:00 +10°C° 0 mm 1 mps 748 mmHg 81%
06:00 +9°C° 0 mm 0 mps 748 mmHg 80%
07:00 +9°C° 0 mm 0 mps 749 mmHg 79%
08:00 +9°C° 0 mm 0 mps 749 mmHg 78%
09:00 +11°C° 0 mm 1 mps 749 mmHg 73%
10:00 +12°C° 0 mm 1 mps 749 mmHg 69%
11:00 +13°C° 0 mm 1 mps 749 mmHg 64%
12:00 +13°C° 0 mm 1 mps 749 mmHg 64%
13:00 +13°C° 0 mm 2 mps 749 mmHg 64%
14:00 +13°C° 0 mm 2 mps 749 mmHg 64%
15:00 +12°C° 0 mm 2 mps 749 mmHg 68%
16:00 +10°C° 0 mm 2 mps 749 mmHg 73%
17:00 +10°C° 0 mm 2 mps 749 mmHg 77%
18:00 +9°C° 0 mm 2 mps 749 mmHg 78%
19:00 +9°C° 0 mm 2 mps 749 mmHg 80%
20:00 +8°C° 0 mm 2 mps 749 mmHg 81%
21:00 +8°C° 0 mm 2 mps 750 mmHg 82%
22:00 +8°C° 0 mm 2 mps 750 mmHg 84%
23:00 +8°C° 0 mm 2 mps 750 mmHg 85%

, 27 October, Tuesday

Time Temperature Precipitation Wind Pressure Humidity
00:00 +7°C° 0 mm 2 mps 750 mmHg 87%
01:00 +7°C° 0 mm 2 mps 750 mmHg 89%
02:00 +7°C° 0 mm 2 mps 750 mmHg 90%
03:00 +7°C° 0 mm 2 mps 750 mmHg 91%
04:00 +6°C° 0 mm 2 mps 750 mmHg 91%
05:00 +6°C° 0 mm 2 mps 750 mmHg 92%
06:00 +5°C° 0 mm 3 mps 750 mmHg 89%
07:00 +7°C° 0 mm 3 mps 750 mmHg 87%
08:00 +7°C° 0 mm 3 mps 751 mmHg 84%
09:00 +8°C° 0 mm 3 mps 751 mmHg 79%
10:00 +8°C° 0 mm 4 mps 751 mmHg 74%
11:00 +11°C° 0 mm 4 mps 751 mmHg 69%
12:00 +11°C° 0 mm 4 mps 751 mmHg 69%
13:00 +11°C° 0 mm 4 mps 750 mmHg 68%
14:00 +11°C° 0 mm 4 mps 750 mmHg 68%
15:00 +10°C° 0 mm 3 mps 750 mmHg 73%
16:00 +9°C° 0 mm 3 mps 750 mmHg 78%
17:00 +8°C° 0 mm 3 mps 750 mmHg 83%
18:00 +8°C° 0 mm 3 mps 750 mmHg 83%
19:00 +8°C° 0 mm 3 mps 750 mmHg 83%
20:00 +7°C° 0 mm 3 mps 751 mmHg 83%
21:00 +7°C° 0 mm 3 mps 751 mmHg 82%
22:00 +7°C° 0 mm 3 mps 751 mmHg 82%
23:00 +6°C° 0 mm 4 mps 751 mmHg 82%

27 October, Tuesday

Time Temperature Precipitation Wind Pressure Humidity
00:00 +7°C° 0 mm 2 mps 750 mmHg 87%
01:00 +7°C° 0 mm 2 mps 750 mmHg 89%
02:00 +7°C° 0 mm 2 mps 750 mmHg 90%
03:00 +7°C° 0 mm 2 mps 750 mmHg 91%
04:00 +6°C° 0 mm 2 mps 750 mmHg 91%
05:00 +6°C° 0 mm 2 mps 750 mmHg 92%
06:00 +5°C° 0 mm 3 mps 750 mmHg 89%
07:00 +7°C° 0 mm 3 mps 750 mmHg 87%
08:00 +7°C° 0 mm 3 mps 751 mmHg 84%
09:00 +8°C° 0 mm 3 mps 751 mmHg 79%
10:00 +8°C° 0 mm 4 mps 751 mmHg 74%
11:00 +11°C° 0 mm 4 mps 751 mmHg 69%
12:00 +11°C° 0 mm 4 mps 751 mmHg 69%
13:00 +11°C° 0 mm 4 mps 750 mmHg 68%
14:00 +11°C° 0 mm 4 mps 750 mmHg 68%
15:00 +10°C° 0 mm 3 mps 750 mmHg 73%
16:00 +9°C° 0 mm 3 mps 750 mmHg 78%
17:00 +8°C° 0 mm 3 mps 750 mmHg 83%
18:00 +8°C° 0 mm 3 mps 750 mmHg 83%
19:00 +8°C° 0 mm 3 mps 750 mmHg 83%
20:00 +7°C° 0 mm 3 mps 751 mmHg 83%
21:00 +7°C° 0 mm 3 mps 751 mmHg 82%
22:00 +7°C° 0 mm 3 mps 751 mmHg 82%
23:00 +6°C° 0 mm 4 mps 751 mmHg 82%

28 October, Wednesday

Time Temperature Precipitation Wind Pressure Humidity
00:00 +5°C° 0 mm 3 mps 751 mmHg 82%
01:00 +5°C° 0 mm 3 mps 751 mmHg 82%
02:00 +5°C° 0 mm 3 mps 751 mmHg 83%
03:00 +4°C° 0 mm 3 mps 751 mmHg 82%
04:00 +4°C° 0 mm 3 mps 751 mmHg 82%
05:00 +4°C° 0 mm 3 mps 751 mmHg 81%
06:00 +4°C° 0 mm 4 mps 751 mmHg 80%
07:00 +5°C° 0 mm 4 mps 751 mmHg 78%
08:00 +5°C° 0 mm 4 mps 751 mmHg 77%
09:00 +6°C° 0 mm 4 mps 751 mmHg 72%
10:00 +8°C° 0 mm 4 mps 751 mmHg 68%
11:00 +10°C° 0 mm 4 mps 751 mmHg 64%
12:00 +10°C° 0 mm 4 mps 751 mmHg 63%
13:00 +11°C° 0 mm 4 mps 751 mmHg 61%
14:00 +11°C° 0 mm 4 mps 751 mmHg 60%
15:00 +10°C° 0 mm 4 mps 750 mmHg 64%
16:00 +9°C° 0 mm 3 mps 750 mmHg 69%
17:00 +7°C° 0 mm 3 mps 750 mmHg 73%
18:00 +7°C° 0 mm 3 mps 750 mmHg 73%
19:00 +7°C° 0 mm 3 mps 751 mmHg 72%
20:00 +5°C° 0 mm 4 mps 751 mmHg 72%
21:00 +5°C° 0 mm 3 mps 751 mmHg 71%
22:00 +4°C° 0 mm 3 mps 751 mmHg 70%
23:00 +4°C° 0 mm 3 mps 751 mmHg 69%

29 October, Thursday

Time Temperature Precipitation Wind Pressure Humidity
00:00 +3°C° 0 mm 3 mps 750 mmHg 67%
01:00 +3°C° 0 mm 3 mps 750 mmHg 64%
02:00 +2°C° 0 mm 3 mps 750 mmHg 61%
03:00 +2°C° 0 mm 3 mps 750 mmHg 60%
04:00 +2°C° 0 mm 3 mps 750 mmHg 59%
05:00 +1°C° 0 mm 3 mps 750 mmHg 58%
06:00 +2°C° 0 mm 3 mps 750 mmHg 57%
07:00 +2°C° 0 mm 3 mps 750 mmHg 57%
08:00 +2°C° 0 mm 3 mps 750 mmHg 56%
09:00 +3°C° 0 mm 3 mps 750 mmHg 55%
10:00 +4°C° 0 mm 3 mps 749 mmHg 54%
11:00 +7°C° 0 mm 3 mps 749 mmHg 53%
12:00 +7°C° 0 mm 3 mps 749 mmHg 54%
13:00 +7°C° 0 mm 3 mps 749 mmHg 55%
14:00 +8°C° 0 mm 3 mps 748 mmHg 56%
15:00 +7°C° 0 mm 3 mps 748 mmHg 61%
16:00 +5°C° 0 mm 3 mps 748 mmHg 66%
17:00 +5°C° 0 mm 2 mps 748 mmHg 71%
18:00 +5°C° 0 mm 2 mps 748 mmHg 73%
19:00 +5°C° 0 mm 2 mps 748 mmHg 74%
20:00 +5°C° 0 mm 2 mps 748 mmHg 76%
21:00 +4°C° 0 mm 2 mps 748 mmHg 77%
22:00 +4°C° 0 mm 2 mps 748 mmHg 79%
23:00 +4°C° 0 mm 2 mps 748 mmHg 81%
Show more